Weather History for KCDS - July, 2013

Change the Weather History Date:

Tuesday, July 16, 2013

  Actual Average Record
Temperature  
Mean Temperature 70 °F 84 °F  
Max Temperature 72 °F 96 °F 106 °F (2009)
Min Temperature 67 °F 71 °F 59 °F (2014)
Degree Days  
Heating Degree Days 0 0  
Month to date heating degree days 0 0  
Since 1 June heating degree days 0 2  
Since 1 July heating degree days 0 0  
Cooling Degree Days 5 19  
Month to date cooling degree days 267 289  
Year to date cooling degree days 1120 1022  
Since 1 June cooling degree days 769 710  
Growing Degree Days 19 (Base 50)    
Moisture  
Dew Point 65 °F    
Average Humidity 88    
Maximum Humidity 97    
Minimum Humidity 79    
Precipitation  
Precipitation 0.91 in 0.06 in 2.28 in (1950)
Month to date precipitation 1.34 1.07  
Year to date precipitation 9.46 13.59  
Snow  
Snow 0.00 in 0.00 in - ()
Month to date snowfall 0.0 0.0  
Since 1 June snowfall 0.0 0.0  
Since 1 July snowfall 0.0 0.0  
Snow Depth -    
Sea Level Pressure  
Sea Level Pressure 30.14 in    
Wind  
Wind Speed 10 mph (SE)    
Max Wind Speed 23 mph    
Max Gust Speed 30 mph    
Visibility 7 miles    
Events Rain    
T = Trace of Precipitation, MM = Missing Value Source: NWS Daily Summary

Daily Weather History Graph

Daily Weather History Graph

Search for Another Location

Airport or City:

Trip Planner

Search our weather history database for the weather conditions in past years. The results will help you decide how hot, cold, wet, or windy it might be!

Date:

Astronomy

Jul. 16, 2013 Rise Set
Actual Time 6:40 AM CDT 8:53 PM CDT
Civil Twilight 6:12 AM CDT 9:21 PM CDT
Nautical Twilight 5:37 AM CDT 9:56 PM CDT
Astronomical Twilight 4:59 AM CDT 10:34 PM CDT
Moon 2:42 PM CDT (7/16) 1:03 AM CDT (7/16)
Length of Visible Light 15h 09m
Length of Day
14h 12m
First Quarter, 56% of the Moon is Illuminated
Jul 16
First Quarter
Jul 22
Full
Jul 29
Last Quarter
Aug 6
New
Aug 14
First Quarter

Hourly Weather History & Observations

Time (CDT) Temp. Dew Point Humidity Pressure Visibility Wind Dir Wind Speed Gust Speed Precip Events Conditions
12:01 AM 68.0 °F 64.4 °F 88% 30.14 in 8.0 mi ESE 5.8 mph - 0.01 in Rain Light Rain
12:31 AM 68.0 °F 64.4 °F 88% 30.14 in 10.0 mi East 4.6 mph - 0.02 in Rain Light Rain
12:40 AM 66.2 °F 64.4 °F 94% 30.14 in 6.0 mi East 4.6 mph - 0.04 in Rain Rain
12:48 AM 66.2 °F 64.4 °F 94% 30.13 in 6.0 mi East 3.5 mph - 0.05 in Rain Light Rain
12:53 AM 66.9 °F 64.9 °F 93% 30.08 in 4.0 mi East 4.6 mph - 0.07 in Rain Rain
1:08 AM 66.2 °F 64.4 °F 94% 30.12 in 2.0 mi Variable 4.6 mph - 0.06 in Rain Heavy Rain
1:15 AM 66.2 °F 64.4 °F 94% 30.12 in 1.8 mi ENE 5.8 mph - 0.12 in Rain Heavy Rain
1:20 AM 66.2 °F 64.4 °F 94% 30.12 in 3.0 mi ENE 6.9 mph - 0.12 in Rain Light Rain
1:53 AM 66.9 °F 64.9 °F 93% 30.06 in 10.0 mi East 6.9 mph - 0.13 in   Overcast
2:53 AM 66.9 °F 64.9 °F 93% 30.04 in 3.0 mi East 8.1 mph - 0.08 in Rain Rain
3:05 AM 66.2 °F 64.4 °F 94% 30.10 in 4.0 mi East 10.4 mph - 0.03 in Rain Rain
3:32 AM 66.2 °F 64.4 °F 94% 30.09 in 5.0 mi East 6.9 mph - 0.09 in Rain Light Rain
3:53 AM 66.9 °F 64.9 °F 93% 30.03 in 10.0 mi East 9.2 mph - 0.10 in Rain Light Rain
4:11 AM 68.0 °F 66.2 °F 94% 30.08 in 5.0 mi East 6.9 mph - 0.00 in Rain Light Rain
4:23 AM 66.2 °F 64.4 °F 94% 30.08 in 2.5 mi East 6.9 mph - 0.01 in Rain Light Rain
4:31 AM 66.2 °F 64.4 °F 94% 30.08 in 4.0 mi ESE 8.1 mph - 0.02 in Rain Light Rain
4:43 AM 66.2 °F 64.4 °F 94% 30.08 in 1.8 mi East 10.4 mph - 0.12 in Rain Heavy Rain
4:53 AM 66.9 °F 64.9 °F 93% 30.03 in 1.8 mi ESE 9.2 mph - 0.21 in Rain Heavy Rain
5:07 AM 66.2 °F 64.4 °F 94% 30.08 in 3.0 mi SE 15.0 mph 19.6 mph 0.07 in Rain Light Rain
5:27 AM 66.2 °F 64.4 °F 94% 30.08 in 9.0 mi SE 15.0 mph 21.9 mph 0.07 in Rain Light Rain
5:53 AM 68.0 °F 64.9 °F 90% 30.03 in 10.0 mi SE 16.1 mph 25.3 mph 0.09 in Rain Light Rain
6:24 AM 68.0 °F 64.4 °F 88% 30.09 in 9.0 mi SE 17.3 mph 24.2 mph 0.00 in Rain Light Rain
6:53 AM 68.0 °F 66.0 °F 93% 30.05 in 10.0 mi SE 18.4 mph 26.5 mph 0.04 in Rain Light Rain
7:12 AM 68.0 °F 66.2 °F 94% 30.11 in 1.8 mi SSE 23.0 mph 27.6 mph 0.06 in Rain Light Rain
7:19 AM 66.2 °F 64.4 °F 94% 30.12 in 2.0 mi SE 19.6 mph 27.6 mph 0.08 in Rain Light Rain
7:28 AM 66.2 °F 64.4 °F 94% 30.12 in 1.8 mi SE 17.3 mph - 0.08 in Rain Light Rain
7:31 AM 66.2 °F 64.4 °F 94% 30.12 in 2.0 mi SE 19.6 mph 24.2 mph 0.08 in Rain Light Rain
7:40 AM 66.2 °F 64.4 °F 94% 30.12 in 5.0 mi SE 17.3 mph - 0.08 in Rain Light Rain
7:53 AM 66.9 °F 64.9 °F 93% 30.07 in 6.0 mi SE 16.1 mph - 0.09 in Rain Light Rain
8:07 AM 66.2 °F 64.4 °F 94% 30.13 in 1.8 mi SE 18.4 mph 24.2 mph 0.00 in Rain Light Rain
8:53 AM 66.9 °F 64.9 °F 93% 30.10 in 2.0 mi SSE 18.4 mph - 0.03 in Rain Light Rain
9:01 AM 66.2 °F 64.4 °F 94% 30.15 in 9.0 mi SSE 18.4 mph 24.2 mph 0.00 in Rain Light Rain
9:23 AM 68.0 °F 64.4 °F 88% 30.16 in 10.0 mi SSE 17.3 mph 25.3 mph 0.00 in   Overcast
9:53 AM 68.0 °F 64.9 °F 90% 30.11 in 10.0 mi SSE 15.0 mph - 0.00 in   Overcast
10:30 AM 68.0 °F 64.4 °F 88% 30.18 in 10.0 mi SSE 17.3 mph - N/A   Overcast
10:53 AM 68.0 °F 64.9 °F 90% 30.14 in 5.0 mi SSE 17.3 mph 28.8 mph 0.02 in Rain Rain
11:10 AM 69.8 °F 64.4 °F 83% 30.19 in 10.0 mi South 18.4 mph 26.5 mph 0.00 in Rain Light Rain
11:53 AM 70.0 °F 64.9 °F 84% 30.14 in 10.0 mi SSE 17.3 mph 21.9 mph 0.00 in   Mostly Cloudy
12:12 PM 69.8 °F 64.4 °F 83% 30.19 in 10.0 mi South 15.0 mph 21.9 mph N/A   Scattered Clouds
12:53 PM 70.0 °F 64.9 °F 84% 30.14 in 10.0 mi SSE 11.5 mph - N/A   Scattered Clouds
1:01 PM 69.8 °F 64.4 °F 83% 30.20 in 10.0 mi SSE 12.7 mph - N/A   Mostly Cloudy
1:53 PM 72.0 °F 64.0 °F 76% 30.14 in 10.0 mi South 11.5 mph - 0.00 in   Mostly Cloudy
2:24 PM 71.6 °F 64.4 °F 78% 30.18 in 10.0 mi South 12.7 mph - N/A   Overcast
2:51 PM 71.6 °F 64.4 °F 78% 30.19 in 10.0 mi South 15.0 mph - N/A   Overcast
2:53 PM 71.1 °F 64.9 °F 81% 30.14 in 10.0 mi South 15.0 mph - N/A   Overcast
3:29 PM 69.8 °F 66.2 °F 88% 30.20 in 9.0 mi SSE 11.5 mph - 0.01 in Rain Light Rain
3:45 PM 69.8 °F 66.2 °F 88% 30.20 in 10.0 mi SSE 8.1 mph - 0.02 in Rain Light Rain
3:53 PM 70.0 °F 66.0 °F 87% 30.15 in 10.0 mi SSE 8.1 mph - 0.02 in Rain Light Rain
4:08 PM 69.8 °F 66.2 °F 88% 30.21 in 9.0 mi SSE 8.1 mph - 0.01 in Rain Light Rain
4:53 PM 71.1 °F 66.9 °F 87% 30.16 in 9.0 mi SE 5.8 mph - 0.03 in Rain Light Rain
5:06 PM 71.6 °F 68.0 °F 88% 30.21 in 10.0 mi SE 4.6 mph - 0.00 in Rain Light Rain
5:09 PM 71.6 °F 66.2 °F 83% 30.21 in 8.0 mi SE 4.6 mph - 0.01 in Rain Rain
5:16 PM 71.6 °F 66.2 °F 83% 30.21 in 6.0 mi SE 4.6 mph - 0.02 in Rain Light Rain
5:53 PM 71.1 °F 68.0 °F 90% 30.15 in 9.0 mi East 3.5 mph - 0.05 in Rain Light Rain
6:48 PM 71.6 °F 69.8 °F 94% 30.22 in 10.0 mi ESE 5.8 mph - 0.02 in Rain Light Rain
6:53 PM 71.1 °F 68.0 °F 90% 30.17 in 7.0 mi SE 12.7 mph 23.0 mph 0.03 in Rain Light Rain
6:58 PM 69.8 °F 66.2 °F 88% 30.22 in 8.0 mi ESE 10.4 mph 23.0 mph 0.00 in Rain Light Rain
7:06 PM 69.8 °F 66.2 °F 88% 30.22 in 10.0 mi ESE 12.7 mph - 0.00 in Rain Light Rain
7:53 PM 68.0 °F 66.0 °F 93% 30.16 in 10.0 mi ESE 9.2 mph - 0.01 in   Mostly Cloudy
8:53 PM 69.1 °F 66.0 °F 90% 30.17 in 10.0 mi ESE 5.8 mph - N/A   Overcast
9:53 PM 69.1 °F 66.9 °F 93% 30.19 in 10.0 mi ESE 5.8 mph - 0.00 in   Mostly Cloudy
10:53 PM 69.1 °F 66.9 °F 93% 30.22 in 10.0 mi East 5.8 mph - N/A   Overcast
11:24 PM 69.8 °F 66.2 °F 88% 30.26 in 10.0 mi East 4.6 mph - N/A   Overcast
11:31 PM 69.8 °F 66.2 °F 88% 30.26 in 9.0 mi East 4.6 mph - N/A   Overcast
11:53 PM 70.0 °F 68.0 °F 93% 30.21 in 10.0 mi Calm Calm - 0.00 in Rain Light Rain